Lexington Weather

Lexington, Massachusetts, USA

34°F
4/16/2021 11:02am 
  • Lexington Conditions: Light snow, Mist, Overcast
  • Temperature: 34.0°F / 1.1°CWarmer 0.2°F than last hour.
  • Dew Point: 32.7°FIncreased 0.2°Fsince last hour.
  • Relative Humidity: 95
  • Wind: Wind from NNW NNW 3 mph, 10-min avg: 2 mph, gust: 4 mph
  • Barometer: 29.47 inFalling 0.03  inHg/hr Falling Slowly
  • Visibility: 1 mile
  • Snow Today: 1.7 in
  •   

Regional Weather Roundup
for Boston / Norton, MA

        
000
ASUS41 KBOX 160004
RWRBOX

REGIONAL WEATHER ROUNDUP
NATIONAL WEATHER SERVICE BOSTON/NORTON MA
800 PM EDT THU APR 15 2021

NOTE:  "FAIR" INDICATES FEW OR NO CLOUDS BELOW 12,000 FEET WITH NO 
SIGNIFICANT WEATHER AND/OR OBSTRUCTIONS TO VISIBILITY.

MAZALL-160100-
EASTERN MASSACHUSETTS
  
CITY           SKY/WX    TMP DP  RH WIND       PRES   REMARKS
BOSTON         CLOUDY    46  37  71 E16       29.79R                  
6HR MIN TEMP:  46; 6HR MAX TEMP:  50; 6HR PCP: TRACE;                

BEVERLY        NOT AVBL                                               
LAWRENCE       CLOUDY    44  39  82 E7        29.81R                  
BEDFORD        LGT RAIN  44  37  76 E9        29.77R                  
BLUE HILL        N/A     41  35  79 E12G22    29.75R                  
NORWOOD        LGT RAIN  45  36  70 E7        29.78R                  
MARSHFIELD     CLOUDY    46  37  71 E8        29.78R                  
PLYMOUTH       LGT RAIN  44  35  70 E7        29.76R                  
TAUNTON        LGT RAIN  43  36  76 VRB3      29.76R                  
NEW BEDFORD    LGT RAIN  43  37  79 E9        29.74S                  
$$

MAZALL-160100-
CAPE COD AND THE ISLANDS
  
CITY           SKY/WX    TMP DP  RH WIND       PRES   REMARKS
FALMOUTH       NOT AVBL                                               
HYANNIS        LGT RAIN  45  37  73 VRB7      29.73F                  
CHATHAM        CLOUDY    44  36  73 E13       29.77S                  
PROVINCETOWN   CLOUDY    44  37  76 E10       29.79R                  
NANTUCKET      LGT RAIN  43  38  82 E14G23    29.72F                  
MARTHAS VNYRD  LGT RAIN  43  38  82 E14       29.72F                  
$$
 
MAZALL-160100-
CENTRAL AND WESTERN MASSACHUSETTS
  
CITY           SKY/WX    TMP DP  RH WIND       PRES   REMARKS
WORCESTER      RAIN      39  35  86 E13G21    29.72S WCI  31          
6HR MIN TEMP:  39; 6HR MAX TEMP:  46; 6HR PCP:  0.27;                

FITCHBURG      LGT RAIN  41  39  93 NE5       29.79R                  
ORANGE         LGT RAIN  41  37  86 VRB5      29.75R                  
SPRINGFIELD    LGT RAIN  42  39  90 NE3       29.71S                  
WESTFIELD      LGT RAIN  41  40  96 N7        29.72S                  
NORTH ADAMS    LGT RAIN  41  38  89 E6        29.74R                  
PITTSFIELD     LGT RAIN  37  35  92 E3        29.72R                  
$$
 
RIZALL-160100-
RHODE ISLAND
  
CITY           SKY/WX    TMP DP  RH WIND       PRES   REMARKS
PROVIDENCE     LGT RAIN  43  38  82 E8        29.74S                  
6HR MIN TEMP:  43; 6HR MAX TEMP:  52; 6HR PCP:  0.11;                

NEWPORT        LGT RAIN  42  39  89 E12       29.71F                  
BLOCK ISLAND   LGT RAIN  41  38  89 E15G24    29.68F                  
SMITHFIELD     RAIN      41  41 100 CALM      29.73S FOG              
WESTERLY       LGT RAIN  40  38  93 NE13      29.68F                  
$$
 
CTZALL-160100-
CONNECTICUT
  
CITY           SKY/WX    TMP DP  RH WIND       PRES   REMARKS
BRADLEY INTL   LGT RAIN  42  39  89 N8        29.72R                  
6HR MIN TEMP:  42; 6HR MAX TEMP:  50; 6HR PCP:  0.71;                

HARTFORD       RAIN      44  39  82 NW7       29.70S                  
BRIDGEPORT     RAIN      45  43  93 NE9       29.70R FOG              
DANBURY        RAIN      47  43  86 CALM      29.71S FOG              
GROTON         LGT RAIN  42  39  89 E13G24    29.67F                  
NEW HAVEN      RAIN      46  44  93 NW3       29.69R FOG              
CHESTER        LGT RAIN  41  41 100 E8        29.65F                  
MERIDEN        HVY RAIN  42  39  89 N8        29.70R FOG              
WILLIMANTIC    LGT RAIN  43  39  86 NE7       29.70S                  
OXFORD         RAIN      43  43 100 NE8       29.69R FOG              
$$

MEZ002-015-021-024-NHZ003-005-008-011-012-014-VTZ005-008-160100-
NORTHERN NEW ENGLAND
  
CITY           SKY/WX    TMP DP  RH WIND       PRES   REMARKS
PORTLAND ME    CLOUDY    44  37  76 E8        29.84S                  
6HR MIN TEMP:  44; 6HR MAX TEMP:  51;                                

BANGOR ME      MOCLDY    46  15  28 SE8       29.86R                  
CONCORD NH     LGT RAIN  41  36  82 CALM      29.80R                  
MANCHESTER NH  LGT RAIN  43  38  82 NE7       29.78S                  
NASHUA NH      LGT RAIN  42  42 100 N5        29.81R                  
PORTSMOUTH NH  CLOUDY    45  37  74 E8        29.81F                  
JAFFREY NH     RAIN      37  34  89 VRB3      29.76R                  
KEENE NH       LGT RAIN  40  35  83 NE8       29.76R                  
BURLINGTON VT  LGT RAIN  44  38  79 S7        29.72R                  
MT. WASHINGTON NOT AVBL                                               
$$

NYZ052-076-160100-
EASTERN NEW YORK
  
CITY           SKY/WX    TMP DP  RH WIND       PRES   REMARKS
ALBANY         LGT RAIN  38  37  97 W12       29.75R WCI  30          
6HR MIN TEMP:  38; 6HR MAX TEMP:  52; 6HR PCP:  0.65;                

NEW YORK CITY  LGT RAIN  49  43  80 N10       29.67S                  
6HR MIN TEMP:  49; 6HR MAX TEMP:  55; 6HR PCP:  0.57;                

$$
 
ANZALL-160100-
MARINE OBSERVATIONS
  
STATION/POSITION TIME  TEMP    WIND        PRES    VSBY  WAVE
                       AIR SEA DIR/SP/G                  HT/PER
                 (UTC) (F)     (DEG/KT/KT) (MB)    (MI)  (FT/S)
BOSTON BUOY      2340   44 45   80/ 14/ 17 1009.1R
BUZZARDS BAY     2300           90/ 20/ 22 1007.2F
NANTUCKET SOUND  2340      47                N/A
MASS BAY-STELLWA 2304   45      90/ 14/ 17 1007.6F  1 7/8  6/11
ISLE OF SHOALS   2300   44      80/ 10/ 11 1009.1F
S OF BLOCK IS    2326      44                N/A           6/ 5
$$

......................KEY.........................
  SKY/WX - SKY CONDITION/PRESENT WEATHER
  TMP    - TEMPERATURE IN FAHRENHEIT
  DWPT   - DEWPOINT IN FAHRENHEIT
  RH     - RELATIVE HUMIDITY IN PERCENT
  WIND   - DIRECTION AND SPEED IN MPH
  PRES   - MEAN SEA LEVEL PRESSURE IN INCHES OF HG
  WCI    - WIND CHILL INDEX
  VSB    - VISIBILITY IN MILES
  HX     - HEAT INDEX
  TC     - TEMPERATURE IN CELSIUS
  VRB    - VARIABLE WIND DIRECTION
  N/A    - NOT AVAILABLE
  
      

Other recent Regional Weather Roundups

Fri Apr 16, 10:05am

Fri Apr 16, 9:04am

Fri Apr 16, 8:04am

Fri Apr 16, 7:04am

Fri Apr 16, 6:04am

Fri Apr 16, 5:04am

Fri Apr 16, 4:04am

Fri Apr 16, 3:04am

Fri Apr 16, 2:04am

Fri Apr 16, 1:04am

Fri Apr 16, 12:04am

Thu Apr 15, 11:05pm

Thu Apr 15, 10:04pm

Thu Apr 15, 9:04pm

Thu Apr 15, 7:05pm

Thu Apr 15, 6:04pm

Thu Apr 15, 5:05pm

Thu Apr 15, 4:04pm

Thu Apr 15, 3:05pm

Thu Apr 15, 2:04pm

Thu Apr 15, 1:05pm

Thu Apr 15, 12:04pm

Thu Apr 15, 11:04am

Thu Apr 15, 10:05am

Thu Apr 15, 9:04am

Thu Apr 15, 8:04am

Thu Apr 15, 7:04am

Thu Apr 15, 6:04am

Thu Apr 15, 5:04am

Thu Apr 15, 4:04am

Thu Apr 15, 3:04am

Thu Apr 15, 2:04am

Thu Apr 15, 1:04am

Thu Apr 15, 12:04am

Wed Apr 14, 11:04pm

Wed Apr 14, 10:04pm

Wed Apr 14, 9:04pm

Wed Apr 14, 8:04pm

Wed Apr 14, 7:04pm

Wed Apr 14, 6:04pm

Wed Apr 14, 5:05pm

Wed Apr 14, 4:04pm

Wed Apr 14, 3:05pm

Wed Apr 14, 2:04pm

Wed Apr 14, 1:05pm

Wed Apr 14, 12:04pm

Wed Apr 14, 11:04am

Wed Apr 14, 10:04am

Wed Apr 14, 9:04am

Wed Apr 14, 8:04am

Wed Apr 14, 7:04am

Wed Apr 14, 6:04am

Wed Apr 14, 5:04am

Wed Apr 14, 4:04am

Wed Apr 14, 3:04am

Wed Apr 14, 2:04am

Wed Apr 14, 1:04am

Wed Apr 14, 12:04am

Tue Apr 13, 11:04pm

Tue Apr 13, 10:05pm

Tue Apr 13, 9:05pm

Tue Apr 13, 8:05pm

Tue Apr 13, 7:04pm

Tue Apr 13, 6:04pm

Tue Apr 13, 5:05pm

Tue Apr 13, 4:04pm

Tue Apr 13, 3:04pm

Tue Apr 13, 2:05pm

Tue Apr 13, 1:04pm

Tue Apr 13, 12:05pm

Tue Apr 13, 11:05am

Tue Apr 13, 10:04am

Tue Apr 13, 9:04am

Tue Apr 13, 8:04am

Tue Apr 13, 7:04am

Tue Apr 13, 6:04am

Tue Apr 13, 5:04am

Tue Apr 13, 4:04am

Tue Apr 13, 3:04am

Tue Apr 13, 2:04am

Tue Apr 13, 1:04am

Tue Apr 13, 12:05am

Mon Apr 12, 11:04pm

Mon Apr 12, 10:04pm

Mon Apr 12, 9:04pm

Mon Apr 12, 8:04pm

Mon Apr 12, 7:05pm

Mon Apr 12, 6:04pm

Mon Apr 12, 5:04pm

Mon Apr 12, 4:04pm

Mon Apr 12, 3:05pm

Mon Apr 12, 2:04pm

Mon Apr 12, 1:05pm

Mon Apr 12, 12:04pm

Mon Apr 12, 11:04am

Mon Apr 12, 10:04am

Mon Apr 12, 9:04am

Mon Apr 12, 8:04am

Mon Apr 12, 7:04am

Mon Apr 12, 6:04am

Mon Apr 12, 5:04am

Mon Apr 12, 4:04am

Mon Apr 12, 3:04am

Mon Apr 12, 2:04am

Mon Apr 12, 1:05am

Mon Apr 12, 12:04am

Sun Apr 11, 11:04pm

Sun Apr 11, 10:04pm

Sun Apr 11, 9:04pm

Sun Apr 11, 8:04pm

Sun Apr 11, 7:04pm

Sun Apr 11, 6:05pm

Sun Apr 11, 5:05pm

Sun Apr 11, 4:04pm

Sun Apr 11, 3:05pm

Sun Apr 11, 2:05pm

Sun Apr 11, 1:05pm

Sun Apr 11, 12:04pm

Sun Apr 11, 11:05am

Sun Apr 11, 10:05am

Sun Apr 11, 9:04am

Sun Apr 11, 8:04am

Sun Apr 11, 7:04am

Sun Apr 11, 6:04am

Sun Apr 11, 5:04am

Sun Apr 11, 4:04am

Sun Apr 11, 3:04am

Sun Apr 11, 2:04am

Sun Apr 11, 1:05am

Sun Apr 11, 12:04am

Sat Apr 10, 11:05pm

Sat Apr 10, 10:04pm

Sat Apr 10, 9:04pm

Sat Apr 10, 8:04pm

Sat Apr 10, 7:05pm

Sat Apr 10, 6:04pm

Sat Apr 10, 5:04pm

Sat Apr 10, 4:04pm

Sat Apr 10, 3:04pm

Sat Apr 10, 2:05pm

Sat Apr 10, 1:04pm

Sat Apr 10, 12:04pm

Sat Apr 10, 11:04am

Sat Apr 10, 10:04am

Sat Apr 10, 9:04am

Sat Apr 10, 8:04am

Sat Apr 10, 7:04am

Sat Apr 10, 6:04am

Sat Apr 10, 5:04am

Sat Apr 10, 4:04am

Sat Apr 10, 3:04am

Sat Apr 10, 2:04am

Sat Apr 10, 1:05am

Sat Apr 10, 12:04am

Fri Apr 9, 11:04pm

Fri Apr 9, 10:05pm

Fri Apr 9, 9:04pm

Fri Apr 9, 8:05pm

Fri Apr 9, 7:05pm

Fri Apr 9, 6:04pm

Fri Apr 9, 5:04pm

Fri Apr 9, 4:05pm

Fri Apr 9, 3:05pm

Fri Apr 9, 2:04pm

Fri Apr 9, 1:04pm

Fri Apr 9, 12:04pm

Fri Apr 9, 11:05am

Meta data:

ID: bb151685-5f10-410c-9381-7e832c3cb51f
Link: https://api.weather.gov/products/bb151685-5f10-410c-9381-7e832c3cb51f